RH
70 77 78 75 68 62 60 60 60 65 68 66 60 52 48 45 48 37 29 23 20 20 21 26 25 35 37 33 28 23 17 13 11 9 7 6 5 5
65 72 77 78 78 75 71 68 68 60 57 53 52 45 42 37 30 23 19 21 26 22 26 29 29 28 24 17 11 7 5 5 4 4 4 4 4 4
57 66 79 84 83 78 72 62 61 50 43 54 45 42 29 23 19 19 23 22 24 25 28 24 19 12 7 6 5 5 5 4 4 4 3 3 3 3
54 56 67 75 69 64 60 59 50 48 42 40 40 32 27 19 22 20 22 25 26 26 18 9 7 5 5 4 4 4 4 4 4 3 3 3 3 3
54 55 61 58 58 57 55 49 45 42 40 32 32 25 22 25 24 25 23 27 23 11 6 5 6 4 4 4 4 4 4 4 3 3 3 3 2 2
55 61 59 58 55 49 45 43 40 40 36 30 22 24 27 26 23 25 28 22 9 5 5 4 4 4 4 5 4 4 3 3 3 3 2 2 2 2
62 61 55 51 49 46 44 41 39 36 30 24 26 25 24 23 27 26 16 6 6 3 4 4 4 4 4 4 4 4 4 4 3 3 3 2 2 2
65 55 53 51 47 45 44 40 35 29 28 24 22 20 25 25 24 12 6 5 4 3 5 4 3 3 4 4 4 4 4 4 5 5 5 4 3 3
57 60 49 49 44 44 36 36 32 32 27 21 20 25 26 20 8 6 4 4 4 3 4 3 4 4 4 5 5 5 6 7 7 7 7 6 5 5
60 51 49 48 45 39 33 33 38 34 24 24 26 24 12 6 5 4 4 4 3 3 5 5 4 5 5 10 9 10 10 10 10 9 8 8 8 7
60 54 55 41 38 36 36 44 33 24 26 27 18 8 6 4 4 5 4 4 4 3 4 7 8 13 8 14 12 12 12 12 11 11 9 8 8 7
61 56 42 38 35 46 47 30 25 28 25 16 7 5 4 4 4 4 5 5 5 5 6 10 9 13 9 12 13 14 12 13 13 11 10 10 9 9
49 43 37 41 54 41 28 24 29 26 14 7 4 4 5 4 4 5 6 8 11 12 12 12 9 11 15 9 13 15 12 11 14 13 13 12 10 8
40 39 57 50 37 29 28 30 23 10 7 4 4 5 4 4 5 7 8 9 10 15 14 11 10 9 10 10 9 14 15 14 19 16 11 9 9 10
57 57 46 39 36 32 29 16 8 6 4 5 5 4 4 5 7 7 6 7 7 8 10 10 8 7 9 9 8 11 12 11 16 14 14 12 10 8
60 55 42 36 30 23 11 8 5 5 6 5 4 4 6 7 6 6 5 5 5 5 8 9 6 6 7 10 10 9 13 15 12 12 12 11 9 8
53 41 34 28 16 9 6 5 5 6 5 5 5 7 7 6 5 5 4 5 5 5 6 9 7 7 9 9 10 11 12 14 14 14 12 9 9 7
36 30 22 11 8 6 4 5 6 6 6 7 8 7 6 5 4 5 5 6 5 6 7 7 9 11 11 10 12 15 18 17 17 13 10 9 8 6
24 12 10 7 5 4 5 5 6 6 9 8 7 5 4 4 5 5 6 6 6 6 8 9 10 12 11 11 12 14 17 17 14 12 10 8 6 6
10 9 6 5 4 6 5 6 7 9 8 6 5 4 4 4 5 6 6 6 6 7 7 8 11 13 12 12 15 17 17 14 14 12 9 7 6 5
8 6 5 5 6 6 6 8 10 7 6 5 5 5 5 6 6 5 5 6 6 7 7 8 11 13 12 16 18 18 16 15 11 9 8 6 5 5
6 5 6 7 7 6 10 10 7 6 5 5 5 6 5 5 5 4 5 5 6 6 7 9 14 12 15 19 19 17 17 11 10 8 7 6 7 6
6 7 7 8 7 11 11 8 7 6 6 6 6 6 5 4 5 5 5 6 6 6 8 13 11 16 20 19 18 19 12 12 10 8 7 8 8 7
Wind_Speed
71 73 73 75 77 79 82 85 86 86 91 99 101 103 103 106 111 115 119 122 123 122 118 110 109 112 119 126 130 131 131 128 126 124 121 120 117 114
75 76 77 79 81 83 86 89 92 93 93 98 102 104 108 112 118 122 120 117 114 109 114 117 120 125 129 129 129 124 115 110 108 106 105 104 104 103
77 79 82 83 85 88 91 93 95 97 96 102 107 112 116 120 120 118 113 110 115 121 125 127 127 125 115 108 105 103 103 99 94 91 89 90 90 90
79 82 84 86 88 91 94 97 99 102 103 106 113 119 122 120 117 109 115 120 125 130 130 123 116 108 102 97 96 95 92 91 87 84 83 82 83 83
82 85 87 89 92 95 98 101 104 107 112 114 118 121 119 117 113 117 123 129 133 125 116 107 106 99 95 91 88 85 83 81 81 78 78 77 76 76
84 87 90 92 96 99 102 105 109 113 118 122 119 118 114 115 120 125 131 133 124 107 102 102 95 88 85 81 81 78 75 74 71 70 68 67 67 69
87 90 93 97 100 104 107 111 116 121 125 121 119 113 116 121 127 132 128 114 110 94 90 93 80 79 77 75 73 70 69 66 64 61 59 57 56 58
89 93 98 101 104 107 112 116 123 125 123 119 114 118 123 129 132 125 110 103 98 86 79 84 71 70 68 67 66 64 61 60 58 57 56 54 52 51
93 98 101 105 108 111 117 122 123 123 119 118 120 127 131 131 115 108 100 93 84 77 72 77 63 62 60 60 58 58 57 55 54 53 51 51 51 50
97 101 105 108 113 118 121 121 118 119 122 124 130 132 123 108 103 97 88 85 79 68 62 68 56 55 53 53 55 54 52 51 49 47 46 46 46 46
101 105 109 113 119 121 117 115 119 123 127 131 130 117 107 99 91 86 82 74 73 64 51 54 47 50 49 47 51 49 47 45 45 43 43 43 43 43
105 111 115 118 117 113 115 120 121 127 131 129 111 104 94 87 82 75 70 65 63 63 49 51 42 37 49 35 44 45 43 38 41 39 39 40 39 40
111 115 117 111 110 116 120 124 128 132 126 109 101 92 84 78 71 65 58 54 55 55 51 49 49 39 41 45 36 40 41 36 36 36 36 36 37 36
113 109 105 111 117 121 125 129 132 118 105 97 88 82 76 69 62 57 49 46 44 48 52 49 53 47 46 46 42 33 35 33 33 35 33 31 30 33
101 105 112 117 122 126 129 125 109 101 93 85 81 75 68 61 56 54 49 49 48 48 51 53 54 50 46 46 43 37 36 26 27 29 28 32 32 31
106 113 118 122 125 127 115 103 95 87 82 79 74 68 62 57 53 55 56 53 49 44 42 49 50 44 40 40 38 32 31 29 26 22 24 27 27 27
113 118 122 125 120 106 97 90 82 78 75 69 64 61 56 57 58 59 55 49 45 43 35 38 41 34 33 32 30 29 26 23 23 25 26 24 24 25
117 121 121 109 99 93 86 78 73 70 66 63 59 57 57 60 59 54 49 44 41 36 33 30 25 27 26 22 20 21 23 22 21 22 22 23 22 21
118 109 100 94 89 83 76 71 67 62 60 58 58 60 60 55 50 48 42 39 36 31 27 24 22 21 17 16 15 15 15 16 18 18 20 20 18 18
97 92 87 83 77 72 68 63 59 56 56 58 59 58 53 48 43 40 38 34 31 25 22 20 16 15 12 11 12 13 12 14 15 16 15 15 13 14
87 82 77 72 68 65 60 56 53 55 58 58 56 51 47 42 34 34 32 29 23 19 17 13 11 9 8 7 8 9 10 12 12 11 11 11 10 7
76 71 67 64 61 57 53 52 54 57 55 53 49 46 41 35 31 28 25 21 16 13 9 6 5 5 4 4 6 6 8 9 10 10 10 9 9 6
65 62 59 56 53 51 48 52 54 52 50 45 41 36 34 30 26 21 17 12 9 6 2 1 1 2 3 4 6 8 9 10 9 10 12 11 9 8
Wind_Direction
279 281 283 283 284 285 287 288 289 289 291 292 293 294 295 296 296 294 294 294 294 292 292 293 293 292 289 287 286 285 284 282 280 277 275 273 271 268
280 282 284 285 286 288 289 290 290 291 292 293 294 296 296 296 295 295 294 293 293 294 295 293 291 290 289 288 286 284 282 279 276 274 273 272 270 267
281 283 285 286 288 288 289 290 292 294 295 296 297 297 298 297 296 295 296 297 298 297 296 295 294 292 290 287 286 284 282 280 279 276 273 271 269 267
282 284 285 287 288 289 291 293 295 296 297 298 299 300 299 297 297 298 301 301 300 298 299 297 296 294 291 289 286 283 283 281 280 277 274 271 268 267
283 285 287 289 290 292 293 295 297 298 299 300 301 300 299 298 300 302 303 301 301 300 299 297 295 294 291 288 286 284 282 280 278 277 274 272 269 266
285 287 289 291 292 294 296 297 299 301 301 301 300 300 299 301 302 303 302 303 301 300 300 296 295 293 290 289 286 286 283 280 279 277 273 270 267 265
288 290 292 293 295 297 298 300 302 302 302 301 300 301 302 303 304 304 304 302 301 300 300 295 295 293 292 290 288 287 284 283 282 279 277 272 267 261
290 292 293 296 297 299 301 302 302 302 301 301 303 304 305 306 307 304 302 302 300 300 298 294 296 293 292 289 287 285 284 284 283 281 279 277 273 266
291 293 296 297 299 301 302 303 302 301 301 304 307 307 308 307 305 304 303 302 300 300 299 295 296 293 290 287 285 284 284 284 283 281 278 275 273 270
294 296 298 300 302 302 303 303 302 301 305 307 308 309 308 306 306 304 304 303 301 300 299 295 298 292 289 286 286 286 284 284 283 281 278 276 273 269
296 299 299 300 303 303 302 300 301 306 307 308 309 308 307 306 307 306 305 304 302 300 298 293 294 292 290 287 287 287 288 289 286 284 281 277 273 270
297 299 300 302 302 301 300 302 306 307 308 309 308 308 307 308 307 306 305 305 303 301 300 296 294 292 292 287 288 289 289 289 286 284 281 277 273 269
298 299 301 302 300 300 302 307 309 308 309 308 308 308 309 309 307 306 306 304 302 299 300 300 298 295 289 293 286 287 292 293 287 286 281 276 277 272
299 301 301 301 301 304 307 308 309 309 308 308 308 309 309 308 307 306 306 304 301 297 298 296 294 295 291 288 291 285 290 289 287 285 284 281 275 275
301 302 301 302 305 307 307 308 308 309 309 309 309 310 310 309 309 307 308 305 300 294 293 291 290 292 290 290 290 291 296 288 281 283 286 286 285 284
304 302 303 305 306 307 308 308 309 310 310 310 311 311 311 310 309 307 307 306 300 294 291 288 289 292 291 288 290 292 294 294 291 293 293 289 284 282
301 303 304 305 307 308 309 310 311 310 310 310 310 309 310 310 311 310 308 306 302 300 298 291 294 296 290 289 291 291 294 294 306 307 299 296 296 290
303 305 306 307 308 310 311 312 312 312 311 310 311 311 312 311 310 309 309 307 304 304 305 304 299 297 297 292 285 288 293 303 303 300 306 305 297 293
305 307 308 309 310 312 313 314 315 313 311 312 313 313 313 313 309 308 306 303 302 307 307 305 300 303 296 290 290 285 291 304 304 314 309 302 304 305
308 310 310 310 312 314 315 316 315 313 314 315 315 315 314 312 310 305 302 304 307 309 308 298 297 299 296 297 296 308 317 319 324 313 309 316 323 310
312 311 311 312 315 316 317 318 317 318 319 320 319 318 316 316 313 308 308 311 311 308 301 295 295 296 301 301 311 327 328 329 326 324 336 345 340 337
311 311 312 316 318 318 319 319 322 323 324 324 322 321 320 320 318 317 320 317 313 308 300 289 295 305 316 330 342 348 345 356 348 354 15 28 43 53
312 312 316 319 319 320 321 325 327 326 328 328 328 326 326 328 327 327 322 321 328 327 322 333 11 50 34 17 22 13 16 19 4 40 59 69 71 88